QPF
0.00 0.00 0.00 0.00 0.00 0.00 0.00 0.00 0.00 0.00 0.00 0.00 0.00 0.00 0.00 0.00 0.00 0.00 0.00 0.00 0.00 0.00 0.00 0.00 0.00 0.00 0.00 0.00 0.00 0.00 0.00 0.00 0.00 0.00 0.00 0.00 0.00 0.00 0.00 0.00 0.00 0.00 0.00 0.00 0.00 0.00 0.00 0.00 0.00 0.00 0.00 0.00 0.00 0.00 0.00 0.00 0.00 0.00 0.00 0.00 0.00 0.00 0.00
0.00 0.00 0.00 0.00 0.00 0.00 0.00 0.00 0.00 0.00 0.00 0.00 0.00 0.00 0.00 0.00 0.00 0.00 0.00 0.00 0.00 0.00 0.00 0.00 0.00 0.00 0.00 0.00 0.00 0.00 0.00 0.00 0.00 0.00 0.00 0.00 0.00 0.00 0.00 0.00 0.00 0.00 0.00 0.00 0.00 0.00 0.00 0.00 0.00 0.00 0.00 0.00 0.00 0.00 0.00 0.00 0.00 0.00 0.00 0.00 0.00 0.00 0.00
0.00 0.00 0.00 0.00 0.00 0.00 0.00 0.00 0.00 0.00 0.00 0.00 0.00 0.00 0.00 0.00 0.00 0.00 0.00 0.00 0.00 0.00 0.00 0.00 0.00 0.00 0.00 0.00 0.00 0.00 0.00 0.00 0.00 0.00 0.00 0.00 0.00 0.00 0.00 0.00 0.00 0.00 0.00 0.00 0.00 0.00 0.00 0.00 0.00 0.00 0.00 0.00 0.00 0.00 0.00 0.00 0.00 0.00 0.00 0.00 0.00 0.00 0.00
0.00 0.00 0.00 0.00 0.00 0.00 0.00 0.00 0.00 0.00 0.00 0.00 0.00 0.00 0.00 0.00 0.00 0.00 0.00 0.00 0.00 0.00 0.00 0.00 0.00 0.00 0.00 0.00 0.00 0.00 0.00 0.00 0.00 0.00 0.00 0.00 0.00 0.00 0.00 0.00 0.00 0.00 0.00 0.00 0.00 0.00 0.00 0.00 0.00 0.00 0.00 0.00 0.00 0.00 0.00 0.00 0.00 0.00 0.00 0.00 0.00 0.00 0.00
0.00 0.00 0.00 0.00 0.00 0.00 0.00 0.00 0.00 0.00 0.00 0.00 0.00 0.00 0.00 0.00 0.00 0.00 0.00 0.00 0.00 0.00 0.00 0.00 0.00 0.00 0.00 0.00 0.00 0.00 0.00 0.00 0.00 0.00 0.00 0.00 0.00 0.00 0.00 0.00 0.00 0.00 0.00 0.00 0.00 0.00 0.00 0.00 0.00 0.00 0.00 0.00 0.00 0.00 0.00 0.00 0.00 0.00 0.00 0.00 0.00 0.00 0.00
0.00 0.00 0.00 0.00 0.00 0.00 0.00 0.00 0.00 0.00 0.00 0.00 0.00 0.00 0.00 0.00 0.00 0.00 0.00 0.00 0.00 0.00 0.00 0.00 0.00 0.00 0.00 0.00 0.00 0.00 0.00 0.00 0.00 0.00 0.00 0.00 0.00 0.00 0.00 0.00 0.00 0.00 0.00 0.00 0.00 0.00 0.00 0.00 0.00 0.00 0.00 0.00 0.00 0.00 0.00 0.00 0.00 0.00 0.00 0.00 0.00 0.00 0.00
0.00 0.00 0.00 0.00 0.00 0.00 0.00 0.00 0.00 0.00 0.00 0.00 0.00 0.00 0.00 0.00 0.00 0.00 0.00 0.00 0.00 0.00 0.00 0.00 0.00 0.00 0.00 0.00 0.00 0.00 0.00 0.00 0.00 0.00 0.00 0.00 0.00 0.00 0.00 0.00 0.00 0.00 0.00 0.00 0.00 0.00 0.00 0.00 0.00 0.00 0.00 0.00 0.00 0.00 0.00 0.00 0.00 0.00 0.00 0.00 0.00 0.00 0.00
0.00 0.00 0.00 0.00 0.00 0.00 0.00 0.00 0.00 0.00 0.00 0.00 0.00 0.00 0.00 0.00 0.00 0.00 0.00 0.00 0.00 0.00 0.00 0.00 0.00 0.00 0.00 0.00 0.00 0.00 0.00 0.00 0.00 0.00 0.00 0.00 0.00 0.00 0.00 0.00 0.00 0.00 0.00 0.00 0.00 0.00 0.00 0.00 0.00 0.00 0.00 0.00 0.00 0.00 0.00 0.00 0.00 0.00 0.00 0.00 0.00 0.00 0.00
0.00 0.00 0.00 0.00 0.00 0.00 0.00 0.00 0.00 0.00 0.00 0.00 0.00 0.00 0.00 0.00 0.00 0.00 0.00 0.00 0.00 0.00 0.00 0.00 0.00 0.00 0.00 0.00 0.00 0.00 0.00 0.00 0.00 0.00 0.00 0.00 0.00 0.00 0.00 0.00 0.00 0.00 0.00 0.00 0.00 0.00 0.00 0.00 0.00 0.00 0.00 0.00 0.00 0.00 0.00 0.00 0.00 0.00 0.00 0.00 0.00 0.00 0.00
0.00 0.00 0.00 0.00 0.00 0.00 0.00 0.00 0.00 0.00 0.00 0.00 0.01 0.02 0.02 0.02 0.02 0.02 0.02 0.02 0.02 0.01 0.01 0.01 0.00 0.00 0.00 0.00 0.00 0.00 0.00 0.00 0.00 0.00 0.00 0.00 0.00 0.00 0.00 0.00 0.00 0.00 0.00 0.00 0.00 0.00 0.00 0.00 0.00 0.00 0.00 0.00 0.00 0.00 0.00 0.00 0.00 0.00 0.00 0.00 0.00 0.00 0.00
0.00 0.00 0.00 0.00 0.00 0.00 0.00 0.00 0.00 0.00 0.01 0.03 0.03 0.03 0.02 0.02 0.02 0.01 0.02 0.01 0.01 0.01 0.01 0.01 0.01 0.01 0.01 0.01 0.01 0.01 0.00 0.00 0.00 0.00 0.00 0.00 0.00 0.01 0.01 0.01 0.01 0.00 0.00 0.00 0.00 0.00 0.00 0.00 0.00 0.00 0.00 0.00 0.00 0.00 0.00 0.00 0.00 0.00 0.00 0.00 0.00 0.00 0.00
0.00 0.00 0.00 0.00 0.00 0.00 0.00 0.00 0.00 0.00 0.02 0.03 0.03 0.03 0.02 0.02 0.03 0.03 0.02 0.02 0.02 0.01 0.01 0.01 0.01 0.01 0.00 0.00 0.00 0.00 0.00 0.00 0.00 0.00 0.00 0.00 0.00 0.01 0.06 0.05 0.03 0.02 0.01 0.01 0.00 0.00 0.00 0.00 0.00 0.00 0.00 0.00 0.00 0.00 0.00 0.00 0.00 0.00 0.00 0.00 0.00 0.00 0.00
0.00 0.00 0.00 0.00 0.00 0.00 0.00 0.00 0.00 0.01 0.02 0.02 0.03 0.04 0.03 0.02 0.02 0.02 0.01 0.01 0.01 0.00 0.00 0.00 0.00 0.00 0.00 0.00 0.00 0.00 0.00 0.00 0.00 0.00 0.00 0.00 0.00 0.00 0.01 0.04 0.08 0.07 0.03 0.02 0.01 0.01 0.00 0.00 0.00 0.00 0.00 0.00 0.00 0.00 0.00 0.00 0.00 0.00 0.00 0.00 0.00 0.00 0.00
0.00 0.00 0.00 0.00 0.00 0.00 0.00 0.00 0.00 0.00 0.03 0.03 0.04 0.04 0.03 0.01 0.01 0.01 0.00 0.00 0.00 0.00 0.00 0.00 0.00 0.00 0.00 0.00 0.00 0.00 0.00 0.00 0.00 0.00 0.00 0.00 0.00 0.00 0.00 0.00 0.01 0.02 0.03 0.03 0.03 0.03 0.02 0.01 0.00 0.00 0.00 0.00 0.00 0.00 0.00 0.00 0.00 0.01 0.02 0.02 0.01 0.01 0.00
0.00 0.00 0.00 0.00 0.00 0.00 0.00 0.00 0.00 0.02 0.03 0.03 0.03 0.03 0.04 0.01 0.01 0.00 0.00 0.00 0.00 0.00 0.00 0.00 0.00 0.00 0.00 0.00 0.00 0.00 0.00 0.00 0.00 0.00 0.00 0.00 0.00 0.00 0.00 0.00 0.00 0.00 0.00 0.00 0.00 0.00 0.02 0.02 0.02 0.01 0.01 0.00 0.00 0.00 0.00 0.00 0.00 0.01 0.02 0.02 0.02 0.02 0.02
0.00 0.00 0.00 0.00 0.00 0.00 0.00 0.00 0.00 0.02 0.02 0.02 0.03 0.03 0.01 0.01 0.01 0.00 0.00 0.00 0.00 0.00 0.00 0.00 0.00 0.00 0.00 0.00 0.00 0.00 0.00 0.00 0.00 0.00 0.01 0.01 0.01 0.01 0.00 0.00 0.00 0.00 0.00 0.00 0.00 0.00 0.00 0.00 0.00 0.01 0.00 0.00 0.00 0.00 0.00 0.00 0.00 0.00 0.00 0.01 0.02 0.02 0.01
0.00 0.00 0.00 0.00 0.00 0.00 0.00 0.00 0.00 0.01 0.02 0.02 0.03 0.02 0.01 0.01 0.01 0.01 0.01 0.00 0.00 0.00 0.00 0.00 0.00 0.00 0.00 0.00 0.00 0.00 0.00 0.01 0.01 0.01 0.02 0.04 0.03 0.02 0.01 0.01 0.00 0.00 0.02 0.05 0.07 0.06 0.03 0.03 0.03 0.03 0.04 0.04 0.04 0.01 0.01 0.00 0.00 0.01 0.00 0.00 0.01 0.01 0.01
0.00 0.00 0.00 0.00 0.00 0.00 0.00 0.00 0.00 0.01 0.02 0.02 0.03 0.02 0.01 0.01 0.02 0.02 0.01 0.01 0.00 0.00 0.00 0.00 0.00 0.00 0.00 0.01 0.01 0.01 0.03 0.03 0.03 0.03 0.03 0.04 0.05 0.04 0.03 0.02 0.01 0.00 0.00 0.01 0.06 0.09 0.11 0.14 0.09 0.06 0.06 0.07 0.05 0.05 0.02 0.01 0.01 0.01 0.00 0.00 0.01 0.02 0.01
0.00 0.00 0.00 0.00 0.00 0.00 0.00 0.00 0.00 0.00 0.02 0.02 0.03 0.02 0.01 0.02 0.03 0.02 0.01 0.01 0.01 0.01 0.00 0.01 0.01 0.01 0.02 0.01 0.02 0.05 0.07 0.11 0.05 0.03 0.03 0.04 0.05 0.05 0.04 0.02 0.01 0.00 0.00 0.00 0.00 0.00 0.00 0.00 0.02 0.02 0.02 0.03 0.05 0.04 0.04 0.02 0.02 0.01 0.01 0.00 0.00 0.01 0.01
0.00 0.00 0.00 0.00 0.00 0.00 0.00 0.00 0.00 0.00 0.00 0.03 0.03 0.03 0.02 0.03 0.02 0.02 0.01 0.01 0.01 0.01 0.01 0.01 0.01 0.00 0.00 0.02 0.04 0.04 0.06 0.04 0.09 0.03 0.02 0.04 0.04 0.04 0.03 0.01 0.00 0.00 0.00 0.00 0.00 0.00 0.00 0.00 0.00 0.00 0.00 0.00 0.01 0.01 0.02 0.04 0.05 0.05 0.04 0.01 0.01 0.01 0.01
0.00 0.00 0.00 0.00 0.00 0.00 0.00 0.00 0.00 0.00 0.01 0.03 0.02 0.03 0.03 0.02 0.02 0.01 0.02 0.03 0.04 0.03 0.01 0.00 0.00 0.00 0.00 0.02 0.02 0.03 0.05 0.04 0.05 0.04 0.03 0.03 0.02 0.03 0.02 0.01 0.00 0.00 0.00 0.00 0.00 0.00 0.00 0.00 0.00 0.00 0.00 0.00 0.00 0.00 0.00 0.00 0.01 0.02 0.05 0.05 0.03 0.01 0.01
0.00 0.00 0.00 0.00 0.00 0.00 0.00 0.00 0.00 0.00 0.00 0.01 0.03 0.03 0.03 0.02 0.02 0.01 0.03 0.05 0.03 0.01 0.01 0.01 0.01 0.01 0.00 0.00 0.03 0.03 0.07 0.07 0.04 0.06 0.01 0.04 0.03 0.06 0.04 0.01 0.02 0.00 0.00 0.00 0.00 0.00 0.00 0.00 0.00 0.00 0.00 0.00 0.00 0.00 0.00 0.00 0.00 0.00 0.01 0.01 0.02 0.03 0.02
0.00 0.00 0.00 0.00 0.00 0.00 0.00 0.00 0.00 0.00 0.00 0.00 0.02 0.03 0.03 0.03 0.03 0.03 0.03 0.02 0.01 0.01 0.01 0.01 0.01 0.00 0.00 0.01 0.05 0.05 0.06 0.06 0.08 0.04 0.03 0.04 0.05 0.10 0.07 0.05 0.03 0.02 0.01 0.00 0.01 0.00 0.01 0.00 0.00 0.01 0.01 0.01 0.01 0.00 0.00 0.00 0.00 0.00 0.00 0.01 0.01 0.01 0.01
0.00 0.00 0.00 0.00 0.00 0.00 0.00 0.00 0.00 0.00 0.00 0.00 0.00 0.01 0.03 0.03 0.03 0.04 0.02 0.01 0.01 0.02 0.01 0.01 0.00 0.01 0.03 0.05 0.05 0.04 0.06 0.04 0.04 0.02 0.04 0.10 0.08 0.03 0.03 0.03 0.02 0.05 0.03 0.02 0.02 0.01 0.01 0.01 0.00 0.00 0.01 0.01 0.01 0.01 0.01 0.00 0.00 0.00 0.00 0.01 0.01 0.00 0.01
0.00 0.00 0.00 0.00 0.00 0.00 0.00 0.00 0.00 0.00 0.00 0.00 0.00 0.00 0.01 0.03 0.04 0.02 0.01 0.01 0.01 0.01 0.01 0.01 0.02 0.03 0.03 0.01 0.01 0.01 0.02 0.01 0.00 0.01 0.04 0.03 0.01 0.02 0.03 0.03 0.05 0.04 0.03 0.03 0.02 0.02 0.01 0.01 0.00 0.00 0.00 0.00 0.00 0.01 0.01 0.02 0.02 0.02 0.01 0.00 0.00 0.00 0.00
0.00 0.00 0.00 0.00 0.00 0.00 0.00 0.00 0.00 0.00 0.00 0.00 0.00 0.00 0.00 0.01 0.01 0.01 0.01 0.01 0.01 0.01 0.00 0.00 0.00 0.00 0.00 0.00 0.00 0.00 0.00 0.00 0.00 0.00 0.00 0.00 0.00 0.00 0.00 0.01 0.02 0.03 0.05 0.05 0.02 0.01 0.01 0.00 0.00 0.01 0.00 0.00 0.01 0.02 0.02 0.01 0.02 0.06 0.05 0.03 0.04 0.02 0.02
0.00 0.00 0.00 0.00 0.00 0.00 0.00 0.00 0.00 0.00 0.00 0.00 0.00 0.00 0.00 0.01 0.01 0.01 0.01 0.01 0.01 0.01 0.00 0.00 0.00 0.00 0.00 0.00 0.00 0.01 0.01 0.00 0.00 0.00 0.00 0.00 0.00 0.00 0.00 0.00 0.00 0.01 0.04 0.02 0.02 0.02 0.01 0.01 0.00 0.01 0.02 0.02 0.01 0.02 0.02 0.02 0.01 0.02 0.02 0.04 0.04 0.04 0.04
0.00 0.00 0.00 0.01 0.01 0.01 0.01 0.00 0.00 0.00 0.00 0.00 0.01 0.01 0.01 0.02 0.01 0.01 0.02 0.02 0.02 0.01 0.00 0.00 0.00 0.00 0.00 0.00 0.00 0.00 0.00 0.00 0.00 0.00 0.00 0.00 0.00 0.00 0.00 0.01 0.02 0.03 0.02 0.02 0.02 0.02 0.05 0.06 0.03 0.01 0.02 0.02 0.02 0.01 0.01 0.01 0.01 0.02 0.03 0.03 0.03 0.04 0.05
0.02 0.01 0.01 0.02 0.02 0.01 0.01 0.00 0.00 0.00 0.00 0.01 0.01 0.01 0.02 0.02 0.02 0.02 0.02 0.02 0.01 0.00 0.00 0.00 0.00 0.00 0.00 0.00 0.00 0.00 0.00 0.00 0.00 0.00 0.00 0.00 0.00 0.00 0.01 0.03 0.03 0.05 0.03 0.02 0.04 0.05 0.04 0.03 0.01 0.00 0.02 0.03 0.03 0.02 0.01 0.03 0.02 0.02 0.02 0.03 0.03 0.03 0.02
0.02 0.03 0.03 0.03 0.02 0.01 0.01 0.01 0.01 0.01 0.02 0.02 0.02 0.03 0.02 0.02 0.03 0.02 0.01 0.01 0.00 0.00 0.00 0.00 0.01 0.01 0.01 0.01 0.01 0.00 0.00 0.00 0.00 0.00 0.00 0.00 0.00 0.00 0.01 0.03 0.04 0.05 0.07 0.05 0.04 0.04 0.02 0.01 0.01 0.01 0.01 0.01 0.01 0.03 0.01 0.01 0.05 0.03 0.03 0.01 0.02 0.02 0.02
0.03 0.03 0.01 0.01 0.02 0.01 0.01 0.01 0.01 0.01 0.02 0.02 0.02 0.03 0.03 0.03 0.02 0.01 0.02 0.01 0.00 0.00 0.00 0.00 0.01 0.01 0.01 0.01 0.01 0.01 0.01 0.01 0.00 0.00 0.00 0.00 0.00 0.00 0.00 0.01 0.02 0.04 0.04 0.04 0.04 0.03 0.02 0.01 0.00 0.00 0.00 0.00 0.00 0.01 0.02 0.01 0.02 0.04 0.05 0.02 0.02 0.01 0.01
0.02 0.02 0.02 0.02 0.01 0.02 0.02 0.01 0.01 0.01 0.02 0.03 0.02 0.02 0.04 0.03 0.02 0.01 0.01 0.01 0.00 0.00 0.00 0.01 0.01 0.01 0.01 0.01 0.01 0.01 0.01 0.01 0.01 0.01 0.00 0.00 0.00 0.00 0.00 0.00 0.02 0.02 0.02 0.02 0.03 0.02 0.01 0.00 0.00 0.00 0.00 0.00 0.00 0.00 0.01 0.01 0.01 0.03 0.05 0.06 0.03 0.01 0.02
0.01 0.01 0.02 0.01 0.02 0.02 0.03 0.02 0.02 0.02 0.02 0.02 0.02 0.03 0.02 0.02 0.00 0.00 0.01 0.00 0.00 0.00 0.00 0.00 0.01 0.01 0.01 0.01 0.01 0.01 0.01 0.01 0.01 0.01 0.01 0.01 0.01 0.00 0.00 0.00 0.00 0.01 0.01 0.01 0.02 0.03 0.02 0.01 0.00 0.01 0.01 0.01 0.01 0.00 0.00 0.01 0.01 0.02 0.03 0.06 0.03 0.02 0.02
0.00 0.00 0.00 0.00 0.00 0.00 0.01 0.00 0.01 0.01 0.01 0.01 0.02 0.03 0.03 0.01 0.00 0.00 0.00 0.00 0.00 0.00 0.00 0.00 0.00 0.01 0.01 0.01 0.01 0.01 0.01 0.01 0.01 0.01 0.01 0.01 0.01 0.00 0.00 0.00 0.00 0.01 0.01 0.02 0.03 0.03 0.02 0.02 0.01 0.01 0.01 0.01 0.01 0.01 0.01 0.01 0.00 0.00 0.02 0.06 0.05 0.02 0.01
0.00 0.00 0.00 0.00 0.00 0.00 0.00 0.00 0.00 0.00 0.00 0.01 0.02 0.02 0.02 0.00 0.00 0.00 0.00 0.00 0.00 0.00 0.00 0.00 0.00 0.00 0.00 0.01 0.01 0.01 0.01 0.01 0.01 0.01 0.01 0.01 0.01 0.01 0.01 0.00 0.01 0.01 0.01 0.01 0.02 0.02 0.02 0.02 0.02 0.01 0.01 0.02 0.02 0.01 0.01 0.01 0.01 0.00 0.00 0.01 0.04 0.02 0.01
0.00 0.00 0.00 0.00 0.00 0.00 0.00 0.00 0.00 0.00 0.01 0.02 0.02 0.02 0.01 0.00 0.00 0.00 0.00 0.00 0.00 0.00 0.00 0.00 0.00 0.00 0.00 0.01 0.01 0.01 0.01 0.01 0.01 0.01 0.02 0.02 0.02 0.02 0.01 0.01 0.01 0.01 0.01 0.01 0.01 0.01 0.02 0.03 0.02 0.01 0.02 0.02 0.02 0.02 0.01 0.01 0.01 0.01 0.00 0.00 0.01 0.03 0.02
MSLP
1031.62 1031.30 1031.06 1030.90 1030.70 1030.50 1030.38 1030.10 1029.86 1029.62 1029.22 1029.10 1028.86 1028.42 1028.10 1028.02 1027.74 1027.46 1027.30 1027.06 1026.82 1026.62 1026.42 1026.18 1025.82 1025.70 1025.50 1025.34 1025.10 1024.82 1024.50 1024.18 1023.82 1023.46 1023.10 1022.90 1022.78 1022.54 1022.26 1022.02 1021.70 1021.10 1020.06 1019.18 1019.02 1018.10 1017.58 1017.30 1017.14 1016.46 1016.30 1015.82 1015.50 1015.22 1014.94 1014.70 1014.42 1014.22 1014.02 1013.98 1013.90 1013.82 1013.78
1031.54 1031.22 1030.94 1030.74 1030.50 1030.42 1030.10 1030.02 1029.66 1029.38 1029.38 1028.98 1028.82 1028.46 1028.38 1028.02 1027.86 1027.54 1027.22 1026.94 1026.62 1026.38 1026.14 1025.90 1025.62 1025.38 1025.30 1025.10 1024.90 1024.66 1024.46 1024.18 1023.90 1023.66 1023.46 1023.18 1022.94 1022.62 1022.22 1021.90 1021.62 1020.94 1020.34 1019.62 1019.06 1018.26 1017.58 1017.34 1017.10 1016.42 1015.98 1015.66 1015.34 1014.94 1014.70 1014.42 1014.14 1013.86 1013.62 1013.46 1013.46 1013.34 1013.26
1031.42 1031.02 1030.78 1030.58 1030.46 1029.90 1030.10 1029.86 1029.66 1029.46 1029.18 1028.98 1028.70 1028.46 1028.22 1027.98 1027.74 1027.46 1027.18 1026.82 1026.54 1026.26 1026.02 1025.74 1025.42 1025.10 1024.98 1024.82 1024.58 1024.38 1024.18 1024.02 1023.82 1023.66 1023.42 1023.18 1022.90 1022.58 1022.18 1021.86 1021.50 1021.10 1020.54 1020.10 1019.42 1018.94 1017.90 1017.58 1017.26 1016.82 1016.14 1015.90 1015.30 1014.82 1014.54 1014.14 1013.82 1013.66 1013.42 1013.18 1012.98 1012.86 1012.90
1031.22 1031.02 1030.90 1030.58 1030.22 1030.38 1030.10 1029.82 1029.62 1029.30 1029.14 1028.82 1028.58 1028.30 1027.98 1027.74 1027.54 1027.26 1026.90 1026.62 1026.30 1026.06 1025.86 1025.62 1025.38 1025.06 1024.94 1024.78 1024.62 1024.34 1024.14 1023.90 1023.66 1023.50 1023.18 1022.90 1022.66 1022.34 1021.98 1021.66 1021.26 1020.82 1020.42 1019.86 1019.54 1018.74 1018.30 1017.34 1017.26 1016.66 1016.30 1015.94 1015.50 1014.86 1014.54 1014.14 1013.66 1013.42 1013.18 1012.94 1012.74 1012.50 1012.42
1031.10 1031.10 1030.86 1030.66 1030.50 1030.22 1029.90 1029.70 1029.46 1029.22 1028.94 1028.74 1028.46 1028.18 1027.86 1027.58 1027.30 1026.94 1026.62 1026.34 1026.02 1025.78 1025.62 1025.42 1025.18 1024.90 1024.78 1024.70 1024.46 1024.18 1023.98 1023.70 1023.54 1023.30 1023.02 1022.70 1022.34 1021.98 1021.62 1021.22 1020.86 1020.46 1020.14 1019.82 1019.34 1018.70 1018.10 1017.62 1017.14 1016.86 1016.42 1016.26 1015.86 1015.14 1014.62 1014.06 1013.42 1013.10 1012.94 1012.74 1012.54 1012.30 1012.02
1031.30 1031.10 1030.82 1030.62 1030.42 1030.02 1029.86 1029.46 1029.26 1029.06 1028.78 1028.54 1028.26 1027.94 1027.62 1027.26 1026.94 1026.58 1026.34 1026.02 1025.78 1025.54 1025.30 1025.06 1024.78 1024.58 1024.54 1024.42 1024.22 1023.86 1023.58 1023.38 1023.14 1022.90 1022.58 1022.30 1021.98 1021.66 1021.34 1020.94 1020.58 1020.22 1019.90 1019.62 1019.14 1018.78 1018.26 1017.82 1017.30 1016.86 1016.38 1016.22 1015.94 1015.50 1014.78 1014.34 1013.74 1013.14 1012.70 1012.46 1012.14 1011.90 1011.78
1031.30 1031.02 1030.86 1030.58 1030.26 1030.02 1029.66 1029.42 1029.14 1028.90 1028.58 1028.30 1027.98 1027.66 1027.38 1027.02 1026.62 1026.34 1026.06 1025.74 1025.46 1025.14 1024.86 1024.62 1024.38 1024.22 1024.10 1023.90 1023.62 1023.34 1023.10 1022.86 1022.62 1022.38 1022.06 1021.74 1021.50 1021.26 1021.02 1020.70 1020.34 1020.06 1019.78 1019.38 1019.02 1018.58 1018.22 1017.70 1017.10 1016.86 1016.10 1015.70 1015.70 1015.18 1014.70 1014.18 1013.46 1012.74 1012.22 1011.90 1011.70 1011.34 1011.22
1031.18 1030.94 1030.78 1030.42 1030.18 1029.86 1029.62 1029.30 1029.02 1028.70 1028.34 1028.02 1027.74 1027.46 1027.14 1026.82 1026.50 1026.10 1025.74 1025.30 1024.94 1024.66 1024.38 1024.06 1023.78 1023.50 1023.18 1022.98 1022.74 1022.54 1022.26 1022.14 1021.90 1021.50 1021.26 1020.94 1020.78 1020.62 1020.42 1020.14 1019.86 1019.62 1019.34 1019.02 1018.66 1018.30 1018.02 1017.58 1017.10 1016.42 1015.82 1015.34 1015.30 1015.02 1014.42 1014.06 1013.54 1012.74 1012.06 1011.58 1011.18 1010.82 1010.66
1031.10 1030.86 1030.58 1030.34 1030.06 1029.74 1029.50 1029.22 1028.82 1028.46 1028.10 1027.82 1027.38 1027.14 1026.82 1026.42 1026.14 1025.74 1025.26 1024.74 1024.26 1023.82 1023.54 1023.18 1022.86 1022.50 1022.18 1021.90 1021.58 1021.30 1021.02 1020.82 1020.74 1020.66 1020.42 1019.98 1019.94 1019.78 1019.58 1019.38 1019.14 1018.90 1018.62 1018.30 1017.98 1017.58 1017.26 1016.98 1016.58 1016.18 1015.74 1015.26 1015.02 1014.54 1013.94 1013.38 1012.98 1012.18 1011.50 1011.06 1010.82 1010.34 1010.22
1030.98 1030.78 1030.54 1030.22 1029.90 1029.62 1029.38 1029.02 1028.58 1028.10 1027.62 1026.94 1026.54 1026.26 1025.90 1025.54 1025.10 1024.70 1024.30 1023.78 1023.14 1022.62 1022.30 1021.98 1021.66 1021.26 1020.90 1020.66 1020.38 1020.10 1019.82 1019.58 1019.46 1019.34 1019.26 1019.02 1018.98 1018.90 1018.74 1018.54 1018.30 1018.06 1017.78 1017.46 1017.14 1016.78 1016.54 1016.34 1015.94 1015.62 1015.34 1014.94 1014.38 1014.02 1013.58 1013.22 1012.86 1012.10 1011.14 1010.78 1010.30 1009.98 1009.62
1030.78 1030.58 1030.30 1030.02 1029.70 1029.34 1028.98 1028.58 1028.18 1027.54 1026.78 1026.34 1025.74 1025.30 1025.22 1024.94 1024.22 1023.66 1023.10 1022.62 1022.18 1021.66 1021.22 1020.78 1020.38 1020.06 1019.78 1019.58 1019.26 1018.94 1018.70 1018.50 1018.26 1018.10 1017.94 1017.78 1017.74 1017.78 1017.70 1017.58 1017.34 1016.98 1016.82 1016.58 1016.22 1015.82 1015.62 1015.42 1015.14 1014.86 1014.70 1014.34 1013.98 1013.82 1013.62 1013.06 1012.54 1011.90 1011.18 1010.54 1010.26 1009.70 1009.18
1030.58 1030.30 1030.02 1029.66 1029.30 1028.94 1028.50 1028.06 1027.50 1026.78 1026.10 1025.50 1024.90 1024.54 1024.22 1023.90 1023.46 1022.90 1022.34 1021.82 1021.34 1020.78 1020.30 1019.82 1019.46 1019.10 1018.82 1018.46 1018.18 1017.86 1017.58 1017.26 1017.02 1016.86 1016.66 1016.46 1016.34 1016.18 1016.06 1015.98 1015.98 1015.82 1015.62 1015.50 1015.34 1014.98 1014.66 1014.50 1014.14 1014.18 1014.06 1013.74 1013.62 1013.58 1013.38 1012.78 1012.34 1011.82 1011.14 1010.38 1009.70 1009.26 1009.10
1030.26 1029.90 1029.62 1029.30 1028.90 1028.42 1028.02 1027.62 1026.98 1026.26 1025.54 1024.74 1024.18 1023.82 1023.34 1023.14 1022.66 1022.22 1021.54 1021.06 1020.70 1020.34 1019.86 1019.42 1018.94 1018.42 1017.94 1017.46 1017.06 1016.78 1016.50 1016.22 1015.98 1015.78 1015.62 1015.46 1015.30 1015.14 1014.94 1014.58 1014.22 1014.14 1014.22 1014.14 1014.06 1013.98 1013.70 1013.62 1013.50 1013.50 1013.22 1013.18 1013.02 1013.06 1012.86 1012.50 1011.94 1011.58 1011.06 1010.34 1009.78 1009.14 1008.74
1029.86 1029.46 1029.18 1028.86 1028.50 1028.02 1027.58 1027.14 1026.58 1025.78 1024.90 1024.38 1023.58 1023.02 1022.58 1022.38 1021.98 1021.42 1020.98 1020.58 1020.18 1019.74 1019.26 1018.78 1018.30 1017.74 1017.14 1016.66 1016.38 1015.98 1015.62 1015.34 1015.06 1014.74 1014.58 1014.38 1014.22 1014.02 1013.74 1013.50 1013.14 1012.78 1012.62 1012.78 1012.82 1012.74 1012.42 1012.26 1012.74 1012.46 1012.30 1012.34 1012.46 1012.58 1012.30 1012.14 1011.82 1011.78 1011.54 1011.18 1010.42 1009.66 1009.10
1029.42 1029.02 1028.74 1028.42 1028.10 1027.62 1027.06 1026.62 1025.98 1025.10 1024.42 1023.70 1022.86 1022.38 1021.70 1021.78 1021.38 1021.02 1020.46 1019.98 1019.54 1019.10 1018.62 1018.10 1017.62 1017.10 1016.54 1016.02 1015.62 1015.14 1014.74 1014.42 1014.06 1013.74 1013.46 1013.22 1012.98 1012.74 1012.62 1012.46 1012.38 1012.18 1011.90 1011.62 1011.38 1011.30 1011.14 1011.14 1011.38 1011.34 1011.30 1011.46 1011.62 1011.54 1011.34 1011.34 1011.38 1011.46 1011.42 1011.10 1010.42 1009.78 1009.54
1029.06 1028.66 1028.30 1027.94 1027.62 1027.18 1026.54 1025.86 1025.30 1024.66 1023.78 1023.02 1022.26 1021.78 1021.62 1021.38 1020.94 1020.42 1019.82 1019.26 1018.74 1018.26 1017.74 1017.22 1016.78 1016.30 1015.74 1015.18 1014.62 1014.06 1013.54 1013.10 1012.74 1012.54 1012.22 1011.98 1011.62 1011.38 1011.10 1011.02 1010.58 1010.50 1010.54 1010.46 1010.38 1010.30 1010.22 1010.14 1010.18 1010.10 1010.10 1010.34 1010.46 1010.54 1010.58 1010.82 1010.86 1010.94 1010.94 1010.98 1010.78 1010.10 1009.50
1028.74 1028.34 1027.94 1027.46 1027.10 1026.70 1026.06 1025.38 1024.78 1024.14 1023.26 1022.38 1021.74 1021.62 1021.42 1020.98 1020.46 1019.78 1019.18 1018.54 1017.94 1017.38 1016.82 1016.34 1015.90 1015.46 1014.90 1014.34 1013.70 1013.02 1012.38 1011.66 1011.26 1011.06 1010.70 1010.38 1010.14 1009.98 1009.74 1009.54 1009.22 1009.10 1009.06 1008.94 1008.74 1008.62 1008.54 1008.62 1008.70 1008.70 1008.62 1008.66 1008.74 1008.98 1009.50 1010.02 1010.18 1009.94 1010.22 1010.42 1010.14 1009.66 1009.26
1028.26 1027.82 1027.46 1027.02 1026.54 1026.26 1025.78 1024.90 1024.34 1023.58 1022.78 1022.10 1021.42 1021.02 1020.90 1020.54 1019.90 1019.30 1018.62 1017.82 1017.14 1016.54 1015.98 1015.42 1014.90 1014.46 1013.98 1013.38 1012.66 1011.90 1011.10 1010.42 1009.94 1009.66 1009.42 1009.10 1008.62 1008.34 1008.30 1008.06 1007.86 1008.02 1007.98 1007.74 1007.42 1007.34 1007.30 1007.18 1007.06 1007.06 1007.06 1007.02 1007.18 1007.46 1008.14 1008.78 1008.94 1008.82 1009.22 1009.34 1009.34 1008.86 1008.30
1027.74 1027.26 1026.90 1026.50 1026.14 1025.70 1025.42 1024.74 1023.98 1023.22 1022.26 1021.42 1020.86 1020.46 1020.22 1019.98 1019.34 1018.66 1018.06 1017.42 1016.70 1016.02 1015.34 1014.62 1013.94 1013.34 1012.74 1012.22 1011.54 1010.82 1010.10 1009.34 1008.90 1008.62 1008.26 1007.78 1007.42 1006.90 1006.58 1006.42 1006.62 1006.74 1006.74 1006.70 1006.74 1006.62 1006.66 1006.62 1006.62 1006.74 1006.90 1006.94 1007.02 1007.06 1007.18 1007.26 1007.42 1007.90 1008.30 1008.50 1008.26 1007.94 1007.74
1027.34 1026.90 1026.46 1026.10 1025.74 1025.30 1024.86 1024.34 1023.58 1022.94 1021.86 1021.14 1020.54 1019.98 1019.54 1019.22 1018.78 1018.30 1017.62 1016.98 1016.34 1015.58 1014.70 1013.90 1013.10 1012.50 1012.06 1011.50 1011.02 1010.38 1009.62 1008.74 1007.78 1007.34 1007.02 1006.70 1006.06 1005.54 1005.26 1004.94 1004.98 1004.86 1004.98 1005.10 1005.38 1005.54 1005.78 1005.98 1006.14 1006.26 1006.38 1006.50 1006.54 1006.54 1006.58 1006.66 1006.62 1006.82 1007.18 1007.46 1007.34 1007.06 1006.86
1027.18 1026.70 1026.14 1025.62 1025.14 1024.66 1024.10 1023.70 1023.10 1022.34 1021.46 1020.74 1020.06 1019.22 1018.74 1018.58 1018.42 1017.90 1017.34 1016.62 1015.90 1015.10 1014.02 1013.30 1012.82 1012.18 1011.62 1011.22 1010.62 1009.86 1008.90 1008.06 1007.22 1006.70 1006.26 1005.50 1004.58 1004.10 1003.62 1003.42 1003.58 1003.66 1003.94 1004.18 1004.50 1004.82 1005.06 1005.34 1005.46 1005.54 1005.58 1005.66 1005.70 1005.66 1005.66 1005.66 1005.70 1005.94 1006.30 1006.46 1006.38 1006.26 1006.18
1026.82 1026.26 1025.58 1024.98 1024.46 1023.94 1023.38 1022.86 1022.42 1021.86 1021.14 1020.42 1019.66 1018.86 1018.34 1018.18 1017.94 1017.50 1016.94 1016.22 1015.34 1014.46 1013.86 1013.26 1012.42 1011.82 1011.38 1010.94 1010.06 1009.10 1008.26 1007.30 1006.66 1005.94 1005.54 1004.58 1003.34 1002.70 1002.42 1002.38 1002.66 1002.98 1003.26 1003.62 1003.86 1004.06 1004.26 1004.38 1004.46 1004.50 1004.54 1004.54 1004.54 1004.50 1004.54 1004.62 1004.66 1004.78 1005.06 1005.30 1005.34 1005.42 1005.58
1026.26 1025.70 1024.94 1024.30 1023.74 1023.22 1022.62 1022.18 1021.78 1021.38 1020.82 1020.18 1019.50 1018.82 1018.14 1017.62 1017.34 1016.70 1016.54 1016.14 1015.10 1014.34 1013.58 1012.78 1012.18 1011.70 1011.34 1010.62 1009.50 1008.62 1007.74 1006.94 1006.26 1005.70 1005.14 1004.10 1003.26 1002.38 1002.18 1002.10 1002.10 1002.22 1002.50 1002.70 1002.86 1003.02 1003.22 1003.26 1003.38 1003.46 1003.46 1003.38 1003.34 1003.30 1003.38 1003.46 1003.50 1003.58 1003.78 1003.98 1004.18 1004.46 1004.74
1025.54 1025.02 1024.42 1023.78 1023.06 1022.54 1022.10 1021.70 1021.34 1020.78 1020.34 1019.94 1019.42 1018.66 1017.94 1017.34 1016.90 1016.58 1016.30 1015.62 1014.78 1013.94 1013.22 1012.50 1012.14 1011.74 1010.82 1009.94 1009.06 1008.30 1007.66 1006.98 1006.58 1006.02 1004.94 1004.14 1003.42 1002.50 1001.86 1001.70 1001.54 1001.46 1001.46 1001.62 1001.86 1002.06 1002.14 1002.10 1002.06 1002.14 1002.22 1002.18 1002.06 1002.06 1002.10 1002.26 1002.46 1002.62 1002.70 1002.90 1003.14 1003.42 1003.70
1025.18 1024.66 1024.02 1023.34 1022.66 1022.10 1021.74 1021.38 1020.94 1020.38 1019.90 1019.62 1019.22 1018.58 1017.90 1017.18 1016.82 1016.54 1016.06 1015.18 1014.30 1013.70 1012.86 1012.42 1011.94 1011.30 1010.50 1009.86 1009.22 1008.58 1008.02 1007.42 1006.66 1005.82 1005.22 1004.62 1003.74 1002.66 1001.86 1001.38 1001.14 1000.94 1000.78 1000.74 1000.78 1000.82 1000.78 1000.78 1000.70 1000.74 1000.82 1000.90 1001.06 1001.14 1001.26 1001.42 1001.54 1001.74 1001.86 1001.98 1002.22 1002.46 1002.70
1024.78 1024.30 1023.66 1022.94 1022.34 1021.90 1021.50 1021.06 1020.54 1019.98 1019.66 1019.42 1018.94 1018.42 1017.90 1017.38 1016.94 1016.38 1015.46 1014.70 1013.90 1013.02 1012.74 1012.62 1012.14 1011.42 1010.78 1010.18 1009.54 1008.98 1008.42 1007.70 1006.86 1006.14 1005.54 1004.74 1003.94 1003.34 1002.58 1001.82 1001.14 1000.66 1000.38 1000.06 999.78 999.62 999.70 999.50 999.58 999.86 999.90 1000.02 1000.30 1000.54 1000.54 1000.54 1000.62 1000.90 1001.06 1001.22 1001.42 1001.74 1001.82
1024.42 1023.86 1023.22 1022.62 1022.14 1021.78 1021.26 1020.62 1020.14 1019.82 1019.50 1019.14 1018.66 1018.22 1017.78 1017.30 1016.62 1015.66 1014.74 1014.10 1013.38 1012.98 1012.90 1012.50 1011.98 1011.34 1010.70 1010.10 1009.58 1009.14 1008.58 1007.90 1007.18 1006.46 1005.74 1005.06 1004.50 1003.86 1003.14 1002.38 1001.66 1000.98 1000.34 999.66 999.14 998.74 998.54 998.42 998.50 998.78 999.22 999.46 999.58 999.70 999.66 999.70 999.82 1000.02 1000.14 1000.34 1000.54 1000.74 1000.86
1023.98 1023.42 1022.90 1022.38 1021.94 1021.46 1020.78 1020.26 1020.06 1019.74 1019.34 1018.86 1018.54 1018.10 1017.66 1017.06 1016.22 1015.22 1014.50 1013.82 1013.22 1013.06 1012.78 1012.26 1011.66 1011.18 1010.62 1010.06 1009.62 1009.18 1008.62 1008.10 1007.54 1006.94 1006.22 1005.58 1004.98 1004.22 1003.46 1002.66 1001.82 1000.90 999.86 998.90 998.42 998.02 997.46 997.38 997.82 998.26 998.46 998.70 998.86 998.94 998.98 999.10 999.26 999.38 999.38 999.50 999.82 1000.18 1000.18
1023.26 1022.82 1022.50 1022.30 1021.74 1021.06 1020.42 1020.18 1019.82 1019.50 1019.18 1018.78 1018.46 1017.94 1017.14 1016.42 1015.66 1014.94 1014.26 1013.70 1013.26 1012.90 1012.62 1012.22 1011.74 1011.26 1010.70 1010.30 1009.86 1009.34 1008.78 1008.18 1007.54 1006.94 1006.54 1006.02 1005.30 1004.58 1003.78 1002.90 1002.10 1001.30 999.94 998.50 997.78 997.34 997.30 997.38 997.46 997.78 997.98 998.22 998.34 998.50 998.58 998.62 998.78 998.86 998.98 999.06 999.22 999.42 999.62
1022.70 1022.46 1022.22 1021.78 1021.22 1020.98 1020.50 1020.02 1019.58 1019.18 1018.74 1018.22 1017.74 1017.18 1016.58 1015.82 1015.14 1014.58 1014.10 1013.58 1013.30 1013.14 1012.74 1012.30 1011.98 1011.50 1011.06 1010.58 1010.18 1009.66 1009.02 1008.42 1007.90 1007.30 1006.66 1006.22 1005.66 1005.06 1004.26 1003.34 1002.46 1001.70 1000.70 999.14 998.06 997.58 997.38 997.46 997.62 997.78 997.94 998.14 998.22 998.30 998.38 998.34 998.46 998.58 998.66 998.78 998.90 999.02 999.14
1022.06 1021.82 1021.58 1021.38 1020.90 1020.62 1020.50 1020.02 1019.50 1018.94 1018.42 1017.94 1017.42 1016.74 1016.02 1015.34 1014.82 1014.38 1013.98 1013.58 1013.38 1013.18 1012.94 1012.54 1012.18 1011.74 1011.38 1010.98 1010.58 1010.06 1009.46 1008.90 1008.34 1007.78 1007.26 1006.66 1006.10 1005.50 1004.78 1003.90 1003.10 1002.26 1001.46 1000.62 999.02 997.86 997.66 997.58 997.74 997.90 997.98 998.10 998.10 998.18 998.26 998.26 998.26 998.42 998.50 998.46 998.50 998.70 998.90
1021.90 1021.54 1021.14 1020.98 1020.90 1020.62 1020.22 1019.78 1019.30 1018.78 1018.22 1017.74 1017.18 1016.46 1015.78 1014.90 1014.42 1014.14 1013.94 1013.78 1013.74 1013.50 1013.10 1012.78 1012.42 1012.02 1011.58 1011.22 1010.82 1010.34 1009.86 1009.34 1008.82 1008.26 1007.78 1007.14 1006.42 1005.74 1005.18 1004.54 1003.78 1002.94 1002.26 1001.14 999.70 998.18 997.78 997.74 997.78 997.78 997.82 997.90 997.94 998.06 998.14 998.22 998.18 998.22 998.38 998.30 998.22 998.46 998.62
1021.70 1021.38 1020.90 1020.66 1020.46 1020.22 1019.94 1019.46 1018.94 1018.54 1018.14 1017.54 1016.90 1016.22 1015.54 1014.74 1014.62 1014.50 1014.22 1014.06 1013.98 1013.74 1013.30 1012.98 1012.66 1012.26 1011.86 1011.50 1011.10 1010.62 1010.14 1009.58 1009.14 1008.66 1008.14 1007.62 1007.02 1006.30 1005.54 1004.94 1004.22 1003.38 1002.26 1001.10 999.86 998.42 997.90 997.74 997.70 997.66 997.74 997.82 997.90 998.02 998.10 998.14 998.18 998.14 998.18 998.18 998.18 998.14 998.22
1021.78 1021.38 1021.22 1020.94 1020.58 1020.14 1019.62 1019.22 1018.90 1018.46 1018.10 1017.54 1016.70 1015.94 1015.30 1014.86 1014.82 1014.74 1014.50 1014.38 1014.26 1013.98 1013.58 1013.30 1012.90 1012.50 1012.14 1011.70 1011.34 1010.86 1010.38 1009.86 1009.38 1008.90 1008.38 1007.86 1007.34 1006.78 1006.06 1005.22 1004.34 1003.46 1002.62 1001.74 1000.90 999.50 997.98 997.82 997.74 997.74 997.78 997.86 997.90 997.94 998.06 998.10 998.10 998.06 998.02 998.14 998.02 997.90 998.02
1021.34 1021.26 1021.18 1020.90 1020.58 1020.22 1019.86 1019.54 1019.18 1018.82 1018.34 1017.70 1016.66 1015.86 1015.42 1015.26 1015.18 1014.94 1014.74 1014.58 1014.50 1014.18 1013.94 1013.54 1013.18 1012.74 1012.34 1011.94 1011.46 1011.02 1010.62 1010.10 1009.62 1009.10 1008.58 1008.10 1007.50 1006.90 1006.26 1005.54 1004.62 1003.86 1003.14 1002.50 1001.66 1000.74 999.14 997.90 997.74 997.70 997.74 997.74 997.78 997.90 998.02 998.02 998.02 997.98 997.90 997.86 997.94 997.82 997.74
1021.14 1020.98 1020.78 1020.62 1020.34 1020.02 1019.70 1019.46 1019.14 1018.78 1018.14 1016.98 1016.38 1016.14 1016.06 1015.74 1015.38 1015.14 1014.94 1014.74 1014.50 1014.30 1014.06 1013.78 1013.38 1012.98 1012.54 1012.18 1011.70 1011.26 1010.78 1010.38 1009.86 1009.34 1008.86 1008.34 1007.82 1007.18 1006.58 1005.86 1005.10 1004.34 1003.70 1003.10 1002.54 1001.58 1000.62 999.34 998.06 997.62 997.66 997.62 997.66 997.74 997.78 997.82 997.82 997.82 997.86 997.78 997.78 997.74 997.58
Thickness
5063 5062 5060 5059 5057 5055 5054 5053 5053 5052 5051 5052 5054 5055 5055 5056 5056 5057 5059 5061 5063 5066 5067 5070 5075 5078 5080 5081 5084 5089 5092 5096 5100 5104 5108 5111 5115 5120 5123 5128 5131 5140 5160 5172 5179 5196 5208 5211 5218 5228 5237 5244 5248 5254 5260 5266 5273 5278 5282 5286 5293 5299 5306
5050 5049 5047 5045 5044 5041 5040 5039 5038 5037 5036 5037 5037 5038 5039 5039 5040 5041 5044 5046 5050 5053 5053 5056 5061 5065 5068 5068 5071 5076 5079 5082 5087 5089 5093 5098 5100 5105 5109 5112 5116 5124 5137 5148 5158 5175 5189 5195 5200 5211 5222 5228 5235 5242 5247 5254 5262 5267 5272 5278 5282 5288 5296
5038 5036 5034 5032 5030 5028 5025 5024 5023 5021 5021 5020 5020 5021 5021 5022 5023 5025 5028 5031 5035 5038 5039 5042 5047 5052 5054 5055 5058 5064 5066 5069 5074 5076 5079 5084 5086 5090 5096 5100 5103 5109 5117 5126 5137 5152 5169 5178 5182 5193 5206 5211 5219 5229 5234 5241 5250 5255 5262 5268 5272 5278 5285
5027 5024 5021 5018 5016 5013 5011 5009 5008 5006 5006 5004 5004 5004 5005 5005 5006 5009 5012 5016 5020 5023 5025 5027 5033 5038 5040 5040 5044 5051 5054 5056 5061 5063 5067 5072 5075 5078 5084 5088 5091 5096 5102 5109 5118 5133 5151 5162 5166 5176 5188 5193 5201 5214 5221 5228 5236 5242 5249 5257 5262 5268 5274
5016 5012 5009 5005 5002 5000 4998 4995 4993 4992 4991 4989 4987 4987 4988 4989 4991 4994 4997 5002 5005 5008 5010 5012 5018 5023 5025 5026 5030 5036 5041 5044 5047 5050 5054 5059 5063 5067 5072 5076 5080 5086 5090 5095 5103 5116 5131 5144 5150 5159 5170 5176 5182 5195 5205 5212 5221 5230 5237 5245 5251 5257 5264
5004 4999 4996 4993 4989 4986 4984 4982 4980 4977 4975 4973 4971 4971 4972 4973 4976 4979 4983 4987 4990 4993 4996 4999 5003 5008 5010 5012 5017 5023 5027 5030 5033 5037 5041 5046 5051 5055 5059 5064 5070 5075 5079 5082 5091 5101 5112 5126 5135 5142 5154 5162 5166 5175 5186 5195 5206 5217 5224 5232 5239 5246 5253
4993 4989 4984 4981 4977 4974 4971 4969 4966 4964 4961 4959 4957 4956 4957 4960 4962 4966 4969 4973 4977 4980 4983 4987 4990 4994 4997 5000 5004 5010 5014 5017 5020 5024 5029 5035 5040 5044 5047 5053 5059 5063 5067 5072 5079 5087 5096 5109 5120 5128 5141 5151 5152 5157 5170 5180 5191 5203 5212 5219 5227 5235 5242
4984 4980 4974 4970 4966 4962 4959 4956 4954 4951 4947 4945 4944 4943 4944 4947 4950 4953 4957 4961 4965 4968 4972 4976 4979 4983 4987 4990 4994 4998 5002 5005 5008 5012 5019 5025 5029 5033 5037 5042 5048 5052 5057 5063 5070 5077 5085 5094 5105 5115 5129 5138 5139 5145 5158 5167 5175 5187 5199 5207 5215 5223 5231
4974 4970 4965 4961 4956 4952 4948 4945 4943 4939 4935 4933 4933 4933 4934 4938 4940 4942 4946 4951 4957 4960 4963 4966 4970 4974 4978 4981 4984 4990 4993 4997 5000 5002 5008 5016 5018 5022 5027 5033 5038 5042 5048 5054 5061 5069 5076 5082 5092 5104 5116 5125 5129 5136 5148 5155 5160 5172 5187 5196 5202 5210 5217
4967 4961 4956 4952 4948 4943 4938 4935 4932 4929 4927 4925 4925 4926 4927 4930 4933 4936 4940 4946 4950 4954 4957 4959 4962 4966 4970 4973 4977 4982 4986 4990 4993 4994 4999 5005 5008 5011 5017 5022 5028 5034 5040 5045 5052 5061 5068 5072 5082 5094 5103 5113 5122 5127 5135 5143 5148 5160 5174 5180 5185 5197 5208
4960 4954 4948 4943 4939 4935 4930 4927 4924 4922 4922 4921 4920 4920 4919 4922 4928 4932 4936 4941 4944 4948 4951 4952 4955 4959 4963 4966 4970 4975 4980 4983 4985 4989 4992 4997 5000 5003 5008 5012 5019 5026 5032 5038 5044 5053 5059 5065 5074 5085 5092 5103 5115 5118 5122 5130 5138 5147 5157 5163 5171 5186 5199
4953 4948 4941 4935 4931 4927 4924 4921 4918 4915 4916 4917 4918 4917 4914 4915 4921 4927 4932 4935 4937 4940 4944 4946 4949 4952 4956 4960 4964 4968 4972 4976 4980 4983 4986 4990 4994 4997 5002 5007 5012 5019 5026 5031 5037 5045 5052 5059 5068 5075 5082 5095 5105 5107 5110 5121 5129 5136 5144 5150 5159 5173 5185
4948 4942 4935 4929 4925 4921 4917 4914 4912 4911 4912 4913 4914 4914 4912 4911 4916 4921 4926 4928 4930 4932 4936 4939 4942 4946 4951 4955 4958 4961 4966 4970 4974 4978 4980 4984 4987 4991 4997 5003 5009 5015 5021 5025 5030 5036 5046 5055 5060 5065 5075 5087 5092 5094 5100 5111 5120 5124 5128 5135 5144 5157 5169
4944 4937 4931 4923 4919 4916 4913 4909 4907 4907 4909 4910 4911 4911 4911 4911 4913 4916 4920 4922 4924 4926 4929 4933 4937 4941 4947 4950 4953 4956 4961 4964 4968 4973 4975 4978 4982 4986 4992 4998 5004 5009 5015 5020 5024 5030 5042 5051 5052 5056 5068 5076 5077 5081 5093 5102 5107 5109 5110 5116 5129 5141 5150
4939 4933 4927 4919 4913 4911 4909 4906 4903 4903 4906 4907 4908 4910 4910 4909 4910 4913 4916 4918 4921 4922 4925 4929 4932 4936 4942 4946 4950 4954 4957 4960 4965 4968 4971 4975 4979 4984 4988 4993 4999 5004 5009 5015 5019 5024 5035 5044 5047 5051 5059 5064 5067 5074 5084 5090 5092 5094 5096 5103 5115 5127 5134
4934 4928 4922 4916 4909 4906 4906 4904 4900 4900 4902 4905 4906 4906 4905 4906 4908 4910 4914 4917 4919 4921 4924 4927 4930 4933 4938 4943 4948 4954 4957 4960 4963 4965 4969 4973 4978 4983 4987 4991 4998 5002 5005 5010 5014 5018 5026 5035 5041 5047 5053 5057 5062 5068 5074 5076 5078 5083 5088 5093 5103 5116 5125
4930 4924 4917 4911 4906 4902 4902 4901 4898 4897 4900 4903 4904 4903 4902 4903 4905 4908 4912 4916 4919 4921 4925 4928 4928 4931 4935 4940 4947 4953 4958 4962 4965 4966 4969 4973 4978 4983 4986 4992 4999 5002 5003 5007 5011 5015 5022 5029 5035 5042 5049 5054 5060 5064 5065 5063 5066 5078 5085 5086 5092 5105 5117
4927 4921 4914 4908 4903 4898 4895 4897 4896 4896 4898 4903 4904 4902 4901 4900 4903 4907 4910 4914 4917 4921 4925 4928 4930 4931 4934 4940 4947 4953 4960 4965 4968 4968 4970 4974 4978 4983 4988 4996 5001 4999 4999 5003 5007 5010 5016 5023 5030 5036 5042 5048 5054 5058 5057 5055 5063 5076 5078 5075 5084 5097 5109
4924 4920 4912 4905 4901 4895 4891 4892 4893 4893 4896 4902 4904 4902 4900 4899 4902 4905 4908 4911 4915 4920 4924 4927 4931 4934 4936 4940 4947 4953 4960 4966 4969 4969 4971 4975 4979 4985 4993 5000 5001 4998 4998 5000 5002 5005 5009 5015 5021 5027 5032 5037 5043 5047 5048 5050 5061 5071 5067 5066 5078 5091 5100
4921 4917 4910 4903 4898 4893 4889 4888 4890 4891 4894 4899 4902 4902 4900 4899 4899 4902 4905 4909 4913 4918 4923 4927 4930 4934 4937 4940 4944 4950 4957 4964 4969 4971 4973 4977 4982 4989 4996 5001 5001 5001 5000 5000 5001 5004 5005 5007 5013 5017 5022 5028 5032 5036 5039 5045 5055 5061 5059 5062 5075 5085 5090
4917 4913 4908 4902 4896 4893 4889 4887 4888 4890 4892 4896 4900 4901 4900 4898 4896 4897 4901 4907 4911 4915 4920 4924 4928 4933 4936 4938 4943 4950 4956 4963 4969 4972 4974 4980 4988 4995 5000 5001 5002 5002 5001 5000 5000 5002 5002 5003 5007 5011 5016 5022 5026 5030 5034 5038 5045 5051 5051 5058 5070 5077 5080
4915 4911 4908 4902 4896 4892 4890 4888 4887 4888 4890 4893 4896 4899 4898 4896 4895 4896 4898 4904 4910 4913 4916 4921 4926 4930 4933 4937 4943 4951 4957 4963 4968 4971 4975 4982 4992 4999 5000 5001 5002 5001 5000 5000 5000 5001 5001 5003 5006 5009 5014 5019 5023 5027 5030 5033 5038 5043 5046 5054 5064 5069 5070
4915 4911 4908 4904 4898 4894 4891 4889 4887 4887 4888 4891 4893 4895 4896 4895 4895 4895 4896 4900 4906 4911 4915 4920 4924 4928 4932 4937 4944 4951 4956 4962 4966 4969 4975 4982 4989 4995 4998 5000 5001 5002 5001 5002 5002 5002 5004 5006 5008 5009 5013 5018 5022 5025 5027 5030 5034 5037 5041 5049 5057 5060 5063
4915 4911 4908 4904 4900 4895 4891 4888 4887 4887 4886 4888 4889 4891 4893 4894 4894 4894 4894 4898 4904 4909 4914 4919 4922 4926 4931 4938 4943 4948 4953 4957 4961 4965 4972 4977 4983 4991 4997 4999 5000 5002 5003 5003 5004 5005 5007 5010 5011 5013 5015 5019 5022 5024 5026 5027 5030 5032 5036 5043 5049 5054 5056
4914 4909 4906 4903 4900 4896 4893 4888 4887 4887 4886 4886 4887 4888 4889 4892 4892 4892 4894 4899 4904 4909 4913 4916 4920 4925 4930 4935 4938 4943 4947 4952 4957 4962 4967 4971 4978 4986 4993 4997 4999 5003 5005 5006 5008 5009 5011 5014 5016 5016 5018 5020 5021 5022 5024 5026 5028 5030 5033 5037 5043 5047 5050
4913 4908 4905 4903 4899 4895 4892 4889 4887 4887 4885 4884 4886 4886 4887 4889 4890 4892 4896 4901 4906 4910 4912 4913 4917 4922 4927 4930 4933 4937 4941 4947 4952 4958 4962 4967 4973 4980 4985 4991 4996 5001 5004 5008 5012 5014 5016 5018 5019 5020 5020 5020 5020 5021 5024 5026 5027 5029 5031 5034 5038 5041 5045
4912 4908 4905 4903 4898 4894 4892 4890 4888 4886 4884 4884 4885 4885 4886 4887 4890 4895 4900 4904 4907 4909 4910 4912 4916 4920 4923 4927 4930 4933 4938 4943 4948 4952 4958 4963 4968 4973 4979 4985 4991 4997 5003 5009 5014 5017 5021 5023 5024 5023 5022 5021 5021 5023 5025 5026 5028 5029 5031 5033 5035 5038 5043
4912 4909 4906 4901 4898 4895 4893 4891 4888 4885 4884 4884 4884 4884 4886 4887 4891 4897 4901 4904 4907 4908 4909 4912 4916 4918 4922 4925 4929 4933 4937 4940 4944 4948 4953 4958 4963 4969 4975 4981 4987 4995 5003 5012 5017 5021 5025 5027 5026 5024 5023 5023 5023 5024 5025 5027 5028 5029 5032 5034 5035 5037 5041
4912 4908 4904 4900 4897 4895 4895 4893 4889 4885 4883 4883 4883 4884 4886 4889 4893 4898 4900 4903 4906 4907 4908 4912 4914 4917 4920 4924 4927 4931 4935 4938 4942 4946 4950 4954 4959 4965 4971 4977 4984 4991 5001 5012 5019 5022 5025 5026 5025 5024 5023 5023 5024 5024 5025 5027 5028 5029 5031 5033 5035 5037 5040
4909 4904 4900 4898 4896 4893 4891 4890 4888 4886 4884 4884 4884 4886 4889 4891 4895 4898 4901 4903 4904 4905 4908 4910 4912 4915 4919 4922 4925 4929 4933 4936 4939 4943 4947 4951 4955 4959 4966 4972 4979 4985 4994 5006 5015 5021 5023 5024 5023 5023 5023 5022 5023 5023 5025 5027 5028 5029 5031 5032 5035 5037 5040
4908 4903 4899 4896 4894 4891 4888 4886 4886 4885 4884 4885 4886 4888 4890 4894 4897 4899 4901 4902 4903 4905 4907 4909 4911 4914 4917 4920 4923 4926 4929 4932 4935 4939 4943 4947 4951 4956 4961 4967 4974 4980 4986 4995 5008 5018 5021 5021 5021 5022 5021 5021 5023 5023 5024 5026 5027 5028 5030 5032 5035 5037 5038
4907 4903 4899 4894 4890 4888 4887 4886 4886 4885 4884 4884 4886 4888 4891 4895 4897 4898 4899 4900 4901 4903 4905 4907 4909 4913 4915 4917 4920 4923 4925 4928 4931 4935 4938 4943 4947 4953 4958 4962 4968 4975 4981 4990 5002 5014 5019 5019 5021 5022 5021 5022 5023 5023 5023 5024 5026 5027 5029 5031 5034 5036 5038
4904 4902 4899 4894 4889 4887 4886 4885 4885 4884 4884 4884 4886 4889 4892 4895 4895 4896 4896 4898 4898 4901 4903 4905 4907 4910 4912 4915 4918 4921 4922 4925 4928 4931 4935 4939 4943 4949 4954 4959 4964 4971 4979 4988 4999 5010 5017 5019 5020 5021 5022 5022 5022 5023 5024 5024 5025 5027 5029 5031 5033 5036 5038
4904 4900 4897 4893 4889 4886 4884 4884 4883 4882 4882 4882 4885 4889 4892 4893 4893 4893 4894 4895 4896 4898 4901 4902 4905 4907 4910 4912 4915 4918 4920 4923 4926 4929 4933 4937 4941 4945 4951 4957 4963 4970 4977 4984 4992 5003 5014 5019 5020 5021 5022 5022 5023 5023 5024 5025 5026 5027 5030 5031 5034 5037 5039
4908 4902 4897 4893 4890 4886 4883 4881 4880 4879 4880 4881 4885 4887 4889 4890 4891 4892 4892 4893 4893 4895 4898 4899 4902 4905 4907 4910 4913 4916 4918 4921 4924 4927 4931 4935 4939 4944 4948 4954 4961 4968 4973 4979 4985 4994 5007 5015 5020 5021 5022 5023 5024 5024 5024 5026 5027 5029 5031 5032 5035 5038 5041
4911 4905 4898 4893 4890 4886 4883 4880 4879 4879 4881 4883 4885 4885 4884 4886 4889 4890 4891 4892 4892 4893 4895 4897 4899 4902 4904 4908 4911 4913 4916 4919 4922 4925 4929 4933 4937 4942 4947 4952 4959 4965 4969 4975 4981 4988 4997 5007 5015 5021 5023 5024 5024 5025 5027 5028 5029 5030 5032 5035 5036 5040 5043